Theta_e
312 313 312 312 314 319 317 318 320 324 325 325 324 315 320 319 317 316 315 321 321 324 317 314 311 313 313 314 315 316 314 314 315 314 317 315 317 316 318 320 323 325 321 321 328
311 313 313 311 313 316 319 316 320 323 324 325 324 322 319 317 320 320 319 317 320 323 319 320 314 313 314 315 315 314 313 313 313 312 313 313 316 316 316 319 321 322 322 322 326
310 312 312 313 313 315 319 316 320 322 323 325 323 323 320 319 320 321 322 321 321 320 322 315 314 314 314 314 313 312 312 311 314 314 313 314 313 315 315 315 320 320 321 321 326
310 311 314 312 312 315 319 317 318 321 322 325 324 323 323 322 327 327 326 322 322 323 327 314 313 313 317 321 314 313 313 313 313 313 313 314 314 314 315 318 318 319 320 320 324
310 310 314 314 314 314 315 319 316 320 322 324 323 323 323 320 325 315 324 326 326 329 329 327 314 315 314 315 314 313 313 313 313 312 312 313 313 313 314 317 317 318 318 319 321
308 309 310 312 314 314 314 319 317 317 321 325 324 325 323 320 322 325 312 325 328 328 328 330 327 323 316 312 314 314 313 312 312 312 312 312 312 312 315 316 316 317 317 319 320
306 307 307 309 312 313 313 315 319 316 319 322 324 324 322 321 319 323 323 318 324 326 328 328 320 316 318 317 314 314 314 313 313 311 311 313 312 311 315 315 316 316 317 319 320
305 306 307 307 309 314 313 313 318 316 317 322 324 323 319 322 319 321 318 315 320 325 324 317 320 319 317 314 314 313 313 320 313 310 311 313 314 313 314 315 315 317 319 320 321
304 304 306 306 307 310 313 313 319 316 317 321 320 315 318 320 315 316 312 312 320 315 315 312 314 314 312 310 312 309 313 313 315 310 309 311 313 312 313 314 314 316 318 320 321
303 302 302 304 305 310 315 313 319 315 316 321 318 315 313 315 320 311 310 312 318 312 310 313 314 312 310 312 316 311 311 311 314 313 309 309 311 311 311 312 314 314 317 319 320
298 301 302 300 303 306 314 313 318 315 317 317 314 316 318 316 319 309 310 315 313 311 309 309 310 313 311 313 313 312 311 310 310 311 310 309 308 310 310 308 310 313 315 317 318
297 296 301 300 300 304 313 314 316 316 315 317 316 314 315 317 312 309 310 313 311 311 308 308 312 308 309 307 308 308 310 310 308 308 308 308 308 308 307 309 310 312 314 316 317
299 300 302 301 301 305 310 314 314 315 315 311 313 309 311 311 312 309 311 311 311 307 308 310 309 308 308 307 308 307 307 308 310 308 307 307 308 308 308 308 310 312 313 313 313
298 300 301 302 302 308 307 314 315 316 314 312 310 311 309 311 309 309 310 312 308 311 306 308 306 307 307 307 307 308 306 308 308 308 309 306 309 307 307 306 305 311 312 314 315
299 300 301 301 303 305 309 314 315 314 318 310 309 310 310 314 309 308 309 308 306 305 306 309 305 306 308 307 307 308 305 306 307 307 305 305 305 305 305 305 305 306 311 314 315
299 299 301 300 301 303 307 313 314 313 316 310 309 308 308 308 308 308 308 308 307 307 306 306 306 306 307 305 307 303 304 304 301 303 307 305 306 306 306 307 307 308 311 313 315
299 298 301 300 301 303 305 306 314 317 307 309 309 308 309 307 308 309 308 305 307 308 308 305 305 305 305 304 304 305 307 308 308 307 309 303 304 308 307 305 305 308 310 311 311
299 299 301 301 301 302 301 304 315 313 311 307 308 309 310 308 308 309 309 308 305 305 306 310 310 304 304 305 305 306 307 309 309 308 307 302 306 307 305 306 307 308 309 309 309
299 300 301 300 301 302 300 307 314 311 308 308 309 310 309 308 308 308 309 308 307 303 307 309 307 305 305 305 307 305 307 306 305 293 304 304 303 303 304 305 304 306 306 310 310
299 299 299 299 301 302 301 307 308 307 306 308 312 311 310 309 309 309 309 308 308 304 305 306 307 306 306 306 306 306 306 308 305 305 306 304 304 306 306 305 303 304 306 308 310
298 301 302 300 304 301 303 308 306 306 308 308 306 309 309 309 310 309 309 308 307 304 305 305 307 307 306 306 306 306 306 305 307 306 307 304 305 301 305 303 303 302 305 309 309
300 301 303 304 302 301 306 306 306 307 307 305 306 306 309 309 308 309 308 310 308 306 306 306 306 307 307 306 305 306 307 308 309 306 303 304 306 302 301 302 303 304 307 308 309
301 302 301 301 303 304 304 306 305 307 307 306 306 306 307 308 309 308 308 306 307 307 307 306 307 307 309 308 306 306 305 307 304 304 304 307 309 302 299 302 306 305 307 308 309
300 302 300 300 301 304 306 306 307 307 306 306 305 305 307 307 307 307 307 305 307 308 308 308 307 310 310 308 306 308 306 305 307 307 307 308 308 306 306 306 306 307 308 309 309
300 301 300 300 301 304 306 307 308 307 307 307 306 306 306 306 308 306 305 305 306 308 308 307 311 307 304 306 307 307 307 306 308 309 307 309 306 305 304 304 306 308 309 309 309
298 299 299 301 302 304 305 306 307 307 307 308 306 306 305 305 307 306 305 305 306 306 307 305 305 305 304 305 305 305 307 307 307 308 308 308 304 304 307 306 305 307 308 309 310
298 299 300 303 303 305 305 306 306 308 307 307 306 305 305 305 305 306 307 306 306 307 306 307 304 303 309 305 305 305 307 306 307 307 308 308 308 304 305 303 306 309 310 310 310
Wind_Speed
25 25 29 24 21 30 29 28 33 34 21 21 29 36 24 23 22 23 23 20 16 16 10 9 7 7 7 6 6 7 4 2 4 5 5 7 6 7 7 8 9 10 4 5 23
22 28 28 36 28 29 31 30 33 33 29 22 23 26 25 21 15 23 27 22 21 12 15 10 7 7 4 5 5 4 4 8 5 4 2 3 7 13 7 6 7 11 11 7 23
24 24 24 21 29 27 31 31 32 36 29 24 27 23 23 16 13 29 31 24 18 21 12 9 10 9 4 5 4 6 5 5 3 5 3 1 4 9 10 3 16 22 19 14 24
23 25 30 26 30 22 29 32 33 34 31 29 23 20 14 17 9 9 29 24 21 20 15 11 13 8 4 4 5 1 5 6 2 3 1 2 2 7 15 11 5 18 17 18 23
21 25 18 32 33 29 26 33 33 34 34 31 28 25 24 19 13 5 14 27 23 21 22 23 16 7 4 4 6 2 3 6 4 3 3 5 8 7 14 16 6 13 18 21 23
19 20 22 21 30 23 24 31 33 35 35 35 32 35 29 13 21 19 6 19 29 27 24 23 16 18 7 5 6 4 8 3 2 3 1 2 2 3 6 19 11 12 16 22 23
18 18 23 22 20 27 28 24 35 36 36 37 34 36 32 32 14 25 19 11 20 28 25 24 13 18 10 4 6 5 2 4 3 1 1 2 2 8 14 14 14 15 17 20 23
17 17 19 19 27 27 30 26 31 37 37 35 38 38 13 31 15 25 19 17 20 23 21 19 21 17 5 6 4 4 3 1 4 6 3 6 6 12 13 14 20 17 18 20 23
19 16 19 19 27 27 29 31 31 37 36 35 39 23 9 22 23 22 21 23 26 20 20 17 20 5 2 7 3 4 3 6 4 6 3 3 6 2 11 14 18 20 19 20 22
24 20 17 18 22 30 28 34 34 35 32 35 27 13 13 25 36 23 22 23 29 26 15 16 7 3 2 2 5 6 4 4 5 3 3 1 8 6 7 14 17 16 18 21 24
28 27 26 20 17 28 24 28 34 20 37 21 28 17 27 19 33 21 25 33 28 25 6 10 6 10 10 12 4 5 4 5 3 4 3 7 9 13 12 11 13 19 19 23 26
20 21 20 20 20 30 26 36 37 33 17 33 16 21 29 34 20 27 30 19 16 10 9 5 15 6 9 7 6 3 3 4 3 1 3 4 10 10 7 12 19 21 23 26 27
18 17 17 18 22 28 19 37 43 34 5 7 19 16 31 33 26 37 41 22 21 11 13 10 8 13 9 6 7 4 5 4 5 2 2 3 7 9 9 16 25 26 25 23 24
17 17 18 15 14 25 26 33 44 27 4 7 10 8 19 27 5 33 35 23 7 14 8 5 5 12 7 7 7 7 6 4 4 2 4 1 6 5 8 11 7 27 30 33 31
18 18 17 17 9 22 15 33 41 21 7 15 10 14 18 28 27 20 26 7 12 9 9 10 10 10 11 10 9 7 6 6 3 2 2 1 3 7 3 5 9 21 35 35 36
19 19 17 19 22 24 19 28 39 7 7 6 11 13 11 6 9 22 9 7 13 6 6 5 4 11 11 4 8 10 7 6 4 2 4 7 7 5 6 9 8 20 32 40 44
20 18 21 20 19 17 33 10 9 13 9 9 9 16 24 4 9 23 16 8 9 10 10 3 2 2 8 8 4 5 7 1 1 1 6 1 2 10 7 10 8 14 25 29 27
19 18 20 19 18 14 12 3 11 16 10 5 12 24 16 15 7 21 19 13 7 5 9 12 7 9 5 8 9 9 8 5 7 4 4 1 7 6 9 20 21 23 22 16 14
18 18 20 22 19 10 5 5 6 20 11 15 20 26 9 9 9 11 19 22 15 9 8 11 6 1 3 5 11 5 7 8 6 2 3 5 7 9 12 15 9 23 19 29 20
20 13 21 13 15 18 2 9 6 8 13 22 15 14 15 26 12 17 22 21 17 10 1 6 5 2 3 7 4 9 12 5 1 3 4 5 5 7 6 9 7 11 17 17 20
17 7 7 20 31 10 3 5 6 8 23 14 10 12 13 22 16 19 21 3 13 8 3 6 5 2 5 8 11 4 7 2 5 5 5 1 6 9 9 5 6 9 9 12 14
13 3 22 35 4 3 4 5 7 17 11 5 5 5 19 26 13 20 15 16 24 18 8 2 5 4 6 1 2 2 7 11 8 5 2 3 8 5 8 5 3 11 4 6 7
8 4 4 17 4 5 3 7 5 16 17 8 6 4 15 17 10 9 14 7 25 17 16 7 1 4 4 3 2 9 2 11 6 3 7 5 9 2 7 7 3 5 3 4 8
8 2 2 4 5 7 5 5 4 19 4 5 8 10 16 8 3 14 9 8 28 21 25 19 3 7 11 3 8 6 8 7 8 3 7 18 11 3 6 4 3 3 4 6 8
7 3 4 3 4 7 11 8 5 10 2 5 4 15 13 7 19 6 6 5 9 20 7 7 17 3 4 3 8 5 11 14 18 29 12 25 18 10 9 7 4 1 4 5 9
10 5 5 2 10 5 9 7 8 9 8 11 15 21 12 12 22 14 10 5 6 3 6 3 1 4 3 1 4 4 11 21 28 24 26 19 7 3 22 13 12 11 10 13 11
9 7 3 7 5 8 7 5 7 6 8 11 9 9 9 6 12 18 12 18 17 13 5 7 6 4 10 3 6 3 24 20 21 19 23 22 10 7 6 10 27 34 28 22 21
Wind_Direction
243 231 235 255 244 227 222 213 212 219 232 231 215 189 180 188 196 202 202 200 179 192 188 175 177 168 160 147 130 130 73 171 219 163 240 166 177 170 182 160 171 188 182 167 183
246 235 239 245 259 230 222 218 209 215 221 222 198 204 199 195 208 212 203 195 197 170 195 193 167 153 148 135 140 116 131 210 204 210 197 213 209 171 166 162 199 197 201 194 184
250 249 228 230 248 239 222 220 208 214 215 222 202 205 201 193 224 232 208 199 189 198 202 189 177 169 146 151 150 161 180 197 222 230 251 221 229 190 158 207 213 213 203 195 186
242 250 230 220 230 230 223 219 216 212 214 204 193 191 208 209 209 212 217 208 206 207 196 182 162 153 149 162 173 167 213 165 175 167 296 226 219 205 205 213 253 229 223 203 193
248 249 247 228 224 238 230 220 214 210 207 208 196 191 184 193 230 156 178 201 202 202 201 197 177 143 162 175 143 208 218 185 220 259 262 259 243 224 234 224 228 202 216 217 207
246 245 253 244 218 223 234 218 217 211 208 208 199 194 200 210 237 219 154 191 200 201 200 202 208 196 187 208 171 227 192 168 202 242 215 222 323 187 252 224 221 204 216 219 218
242 235 243 249 245 219 240 233 213 210 210 208 206 203 192 213 232 220 220 200 201 204 197 199 177 181 183 154 191 116 112 347 215 239 153 164 306 236 226 209 208 210 215 220 220
243 233 239 249 252 230 227 243 214 209 209 207 201 190 205 218 222 202 196 190 185 192 193 182 199 189 179 128 84 109 64 73 226 182 215 145 264 273 231 214 217 214 219 217 220
238 237 239 239 257 256 213 227 210 204 202 208 182 176 204 211 197 190 190 185 173 166 184 171 173 141 125 120 105 45 169 203 289 207 160 172 238 273 214 220 226 220 220 222 224
232 234 239 247 264 247 213 229 205 196 197 202 194 171 202 202 195 184 174 178 164 169 141 168 156 128 112 152 187 167 195 206 201 201 116 80 266 257 233 226 232 232 223 226 229
233 235 245 250 254 259 202 223 182 172 182 176 187 185 186 180 183 180 169 165 159 160 150 174 169 189 170 200 193 156 149 192 225 226 172 211 234 263 234 230 231 237 233 229 232
224 228 235 240 236 256 215 223 183 178 184 188 203 190 164 170 160 172 166 152 155 162 124 132 205 177 159 186 155 149 177 237 298 120 156 273 259 247 210 235 238 232 231 236 238
220 223 233 239 241 241 276 205 193 175 170 160 190 187 168 168 170 167 170 156 164 151 177 175 177 166 155 158 160 163 165 191 212 20 229 316 269 234 240 229 243 244 245 242 245
214 224 234 236 251 229 273 202 177 179 158 184 174 203 190 160 104 168 170 144 158 175 130 178 161 159 152 174 140 176 203 167 181 101 234 91 279 272 234 234 215 236 239 243 243
208 213 230 229 226 215 234 196 189 165 205 154 157 167 194 163 139 178 165 138 155 154 149 193 153 153 179 178 154 208 148 150 121 149 359 313 298 278 6 262 250 241 237 238 243
211 207 216 232 243 237 242 202 169 163 207 153 138 158 181 191 139 152 157 124 129 99 58 165 174 165 179 118 145 146 84 55 56 81 266 205 194 246 203 215 224 234 239 237 238
211 208 215 230 234 232 239 261 185 206 152 157 165 157 180 183 125 164 170 163 154 144 172 125 190 152 135 96 53 107 113 41 307 234 232 352 237 257 263 244 219 242 252 249 246
208 209 220 232 228 239 246 227 234 159 173 165 153 155 179 149 110 172 168 178 236 125 140 166 205 176 181 161 158 168 153 159 196 205 252 22 239 242 237 270 264 255 250 253 232
206 210 224 229 224 229 167 247 224 161 160 141 150 164 132 168 132 151 183 196 189 179 150 172 198 11 147 133 141 187 192 163 110 55 36 229 289 290 268 270 266 263 260 249 245
203 221 246 221 200 175 164 247 258 149 126 135 151 182 162 181 141 168 183 204 195 177 236 180 115 352 139 99 44 175 148 138 111 175 255 274 274 234 281 263 314 270 260 268 251
183 182 271 196 169 137 198 247 268 200 140 150 145 176 170 177 173 186 187 204 176 140 63 143 98 193 148 208 167 137 181 128 133 170 182 251 258 217 227 270 280 289 270 247 247
163 168 158 161 137 140 210 195 284 177 151 125 103 92 167 174 161 190 192 190 179 161 154 188 112 144 186 238 196 204 177 176 188 208 241 131 253 225 218 224 238 270 295 219 227
166 159 181 176 155 159 152 213 269 189 170 154 137 156 158 167 170 169 182 187 172 168 174 174 159 91 41 325 184 214 213 189 103 92 198 156 258 204 209 231 267 261 235 226 206
149 167 135 207 264 153 147 225 213 215 181 98 113 108 131 156 194 179 159 182 179 183 181 163 128 158 197 215 133 174 187 173 167 180 201 230 220 322 244 229 213 260 217 200 188
155 197 187 172 213 175 155 200 186 189 230 132 83 152 145 155 195 172 139 108 177 188 148 148 207 122 44 163 161 175 182 184 197 225 194 250 227 212 238 189 211 243 213 210 200
154 166 179 180 138 146 181 182 161 195 183 189 161 168 159 162 189 177 133 146 158 72 137 39 236 105 6 27 138 170 191 199 212 217 234 246 263 222 224 234 234 223 215 232 230
184 169 167 144 168 172 173 166 169 191 242 229 137 134 178 180 128 158 147 157 156 159 142 143 124 109 225 156 103 341 217 206 223 215 228 233 237 183 223 238 255 265 274 269 256